GW4670 Weather Reports


time (UTC)temp
F
wind
direction
speed
knots
gust
knots
rain 1hr
in
rain 24hr
in
rain mn
in
humidity
%
barometer
mb
20260505065714 50 350 5.2 7.0 0.00 0.00 0.00 50 1004.4
20260505065211 50 351 7.0 7.8 0.00 0.00 0.00 49 1005.0
20260505064708 50 348 6.1 7.8 0.00 0.00 0.00 49 1004.9
20260505064206 50 332 6.1 7.8 0.00 0.00 0.00 49 1004.3
20260505063703 50 346 7.8 9.6 0.00 0.00 0.00 48 1004.0
20260505063159 50 351 9.6 9.6 0.00 0.00 0.00 47 1004.1
20260505062655 50 352 9.6 11.3 0.00 0.00 0.00 47 1004.2
20260505062153 50 354 7.0 8.7 0.00 0.00 0.00 49 1004.3
20260505061650 50 4 10.4 12.2 0.00 0.00 0.00 48 1004.3
20260505061148 50 330 7.8 8.7 0.00 0.00 0.00 51 1004.3
20260505060645 50 335 11.3 13.0 0.00 0.00 0.00 51 1004.3
20260505060142 50 305 7.8 9.6 0.00 0.00 0.00 51 1004.1
20260505055637 51 358 10.4 12.2 0.00 0.00 0.00 48 1003.8
20260505055134 51 324 10.4 12.2 0.00 0.00 0.00 47 1003.7
20260505054631 51 6 7.8 9.6 0.00 0.00 0.00 48 1003.7
20260505054129 51 0 11.3 13.0 0.00 0.00 0.00 49 1003.7
20260505053626 51 348 7.0 7.8 0.00 0.00 0.00 49 1003.9
20260505053122 52 329 6.1 7.0 0.00 0.00 0.00 50 1003.9
20260505052620 52 356 9.6 13.0 0.00 0.00 0.00 46 1003.9
20260505052117 52 329 6.1 7.8 0.00 0.00 0.00 46 1003.9
20260505051614 52 349 6.1 7.8 0.00 0.00 0.00 46 1004.1
20260505051112 52 324 6.1 7.8 0.00 0.00 0.00 45 1004.2
20260505050610 52 335 9.6 11.3 0.00 0.00 0.00 46 1004.2
20260505050108 53 331 6.1 7.8 0.00 0.00 0.00 45 1004.4
20260505041537 53 331 9.6 12.2 0.00 0.00 0.00 45 1002.8
20260505041035 53 331 7.0 8.7 0.00 0.00 0.00 45 1002.7
20260505040532 54 335 7.8 8.7 0.00 0.00 0.00 45 1002.6
20260505040029 54 332 11.3 12.2 0.00 0.00 0.00 44 1002.3
20260505035525 54 344 12.2 14.8 0.00 0.00 0.00 45 1002.1
20260505035022 54 322 10.4 13.9 0.00 0.00 0.00 44 1002.5
20260505034518 54 350 9.6 9.6 0.00 0.00 0.00 44 1002.9
20260505034015 54 344 7.8 8.7 0.00 0.00 0.00 45 1003.1
20260505033512 55 317 13.0 14.8 0.00 0.00 0.00 44 1003.0
20260505033011 55 308 12.2 13.9 0.00 0.00 0.00 44 1002.7
20260505032508 56 339 8.7 11.3 0.00 0.00 0.00 45 1002.1
20260505032004 56 329 8.7 11.3 0.00 0.00 0.00 45 1002.2
20260505031501 57 304 8.7 9.6 0.00 0.00 0.00 43 1002.0
20260505030958 57 295 9.6 13.0 0.00 0.00 0.00 42 1001.8
20260505030454 57 350 5.2 6.1 0.00 0.00 0.00 41 1002.0
20260505025949 57 339 6.1 7.0 0.00 0.00 0.00 42 1001.8
20260505025447 57 312 5.2 7.0 0.00 0.00 0.00 42 1001.9
20260505024945 58 317 4.3 6.1 0.00 0.00 0.00 41 1001.8
20260505024442 57 343 7.0 9.6 0.00 0.00 0.00 41 1001.8
20260505023940 57 319 9.6 12.2 0.00 0.00 0.00 39 1001.7
20260505023436 57 331 7.8 11.3 0.00 0.00 0.00 40 1001.8
20260505022934 57 306 8.7 9.6 0.00 0.00 0.00 40 1001.7
20260505022431 57 333 7.0 7.0 0.00 0.00 0.00 41 1001.2
20260505021928 57 310 8.7 9.6 0.00 0.00 0.00 40 1001.2
20260505021425 56 314 5.2 6.1 0.00 0.00 0.00 42 1001.0
20260505020920 57 329 4.3 5.2 0.00 0.00 0.00 41 1000.9
20260505020416 57 348 9.6 11.3 0.00 0.00 0.00 41 1000.7
20260505015913 57 330 7.8 9.6 0.00 0.00 0.00 40 1000.6
20260505015410 57 342 7.8 8.7 0.00 0.00 0.00 39 1000.8
20260505014907 57 340 6.1 7.8 0.00 0.00 0.00 39 1000.8
20260505014404 58 327 8.7 9.6 0.00 0.00 0.00 37 1000.7
20260505013901 58 336 8.7 11.3 0.00 0.00 0.00 37 1000.6
20260505013358 59 332 10.4 12.2 0.00 0.00 0.00 37 1000.6
20260505012856 59 357 9.6 11.3 0.00 0.00 0.00 36 1000.0
20260505012354 60 351 10.4 11.3 0.00 0.00 0.00 37 1000.1
20260505011850 60 321 10.4 12.2 0.00 0.00 0.00 37 999.9
20260505011347 60 338 7.0 7.8 0.00 0.00 0.00 39 999.7
20260505010843 61 351 7.8 8.7 0.00 0.00 0.00 36 999.6
20260505010338 61 347 10.4 13.0 0.00 0.00 0.00 36 999.3
20260505005835 61 320 8.7 9.6 0.00 0.00 0.00 36 999.1
20260505005332 62 337 7.8 9.6 0.00 0.00 0.00 37 999.2
20260505004830 63 342 7.8 8.7 0.00 0.00 0.00 35 999.1
20260505004326 63 332 8.7 11.3 0.00 0.00 0.00 35 999.1
20260505003823 64 329 9.6 9.6 0.00 0.00 0.00 34 998.9
20260505003320 64 5 7.0 8.7 0.00 0.00 0.00 34 999.0
20260505002816 64 337 7.8 8.7 0.00 0.00 0.00 34 999.1
20260505002314 64 341 9.6 12.2 0.00 0.00 0.00 33 998.8
20260505001812 65 329 13.0 15.6 0.00 0.00 0.00 32 998.9
20260505001308 66 357 12.2 13.9 0.00 0.00 0.00 33 999.0
20260505000806 67 340 14.8 17.4 0.00 0.00 0.00 34 998.6
20260505000303 67 328 7.0 8.7 0.00 0.00 0.00 37 998.5
20260504235800 67 349 9.6 12.2 0.00 0.00 0.00 36 998.7
20260504235256 68 340 7.8 11.3 0.00 0.00 0.00 36 998.6
20260504234753 68 320 13.9 19.1 0.00 0.00 0.00 34 998.5
20260504234251 69 340 9.6 13.0 0.00 0.00 0.00 34 998.6
20260504233747 69 315 7.8 9.6 0.00 0.00 0.00 34 998.1
20260504233243 69 312 11.3 13.0 0.00 0.00 0.00 33 997.9
20260504232740 70 338 13.0 13.9 0.00 0.00 0.00 31 997.8
20260504232237 70 354 9.6 12.2 0.00 0.00 0.00 33 998.0
20260504231734 71 336 9.6 13.0 0.00 0.00 0.00 33 997.9
20260504231230 71 353 13.0 14.8 0.00 0.00 0.00 31 997.8
20260504230726 71 342 11.3 13.9 0.00 0.00 0.00 32 997.9
20260504230225 71 354 10.4 13.0 0.00 0.00 0.00 33 997.7
20260504225724 72 347 12.2 13.0 0.00 0.00 0.00 31 997.4
20260504225219 72 315 12.2 13.9 0.00 0.00 0.00 31 997.6
20260504224716 72 325 9.6 11.3 0.00 0.00 0.00 32 997.5
20260504224214 73 338 7.0 9.6 0.00 0.00 0.00 33 997.4
20260504223710 73 6 11.3 13.0 0.00 0.00 0.00 31 997.3
20260504223205 73 314 12.2 15.6 0.00 0.00 0.00 30 997.1
20260504222703 73 319 9.6 13.9 0.00 0.00 0.00 32 997.2
20260504222159 73 355 13.0 14.8 0.00 0.00 0.00 30 997.0
20260504221657 74 355 8.7 11.3 0.00 0.00 0.00 33 996.9
20260504221154 74 6 11.3 13.0 0.00 0.00 0.00 31 996.8
20260504220650 75 343 9.6 12.2 0.00 0.00 0.00 32 996.7
20260504220148 75 7 10.4 14.8 0.00 0.00 0.00 31 996.8
20260504215644 75 317 7.8 9.6 0.00 0.00 0.00 32 996.5
20260504215142 76 334 9.6 11.3 0.00 0.00 0.00 32 996.6
20260504214637 76 4 7.8 8.7 0.00 0.00 0.00 32 996.6
20260504214134 76 347 10.4 12.2 0.00 0.00 0.00 32 996.4
20260504213630 76 5 13.0 18.2 0.00 0.00 0.00 32 996.2
20260504213127 77 327 11.3 13.9 0.00 0.00 0.00 33 996.3
20260504212624 77 319 10.4 13.9 0.00 0.00 0.00 33 996.3
20260504212121 77 321 9.6 11.3 0.00 0.00 0.00 34 996.2
20260504211618 78 346 11.3 12.2 0.00 0.00 0.00 34 996.1
20260504211114 78 325 8.7 11.3 0.00 0.00 0.00 34 996.1
20260504210612 76 325 7.0 8.7 0.00 0.00 0.00 37 996.0
20260504210108 76 318 8.7 11.3 0.00 0.00 0.00 38 996.2
20260504205606 76 317 7.0 7.8 0.00 0.00 0.00 37 996.1
20260504205104 77 324 7.8 8.7 0.00 0.00 0.00 36 996.0
20260504204601 78 323 9.6 12.2 0.00 0.00 0.00 35 995.8
20260504204100 78 291 8.7 13.0 0.00 0.00 0.00 34 995.8
20260504203558 78 329 4.3 5.2 0.00 0.00 0.00 34 995.9
20260504203055 80 301 9.6 12.2 0.00 0.00 0.00 31 995.8
20260504202550 82 266 9.6 11.3 0.00 0.00 0.00 27 995.7
20260504202048 81 277 13.0 17.4 0.00 0.00 0.00 26 995.8
20260504201544 80 332 7.0 7.8 0.00 0.00 0.00 28 995.5
20260504201043 81 299 13.0 17.4 0.00 0.00 0.00 27 995.7
20260504200538 80 304 8.7 12.2 0.00 0.00 0.00 27 995.9
20260504200036 82 262 7.8 13.0 0.00 0.00 0.00 29 996.0
20260504195531 81 286 10.4 13.9 0.00 0.00 0.00 29 995.9
20260504195029 81 310 7.8 12.2 0.00 0.00 0.00 30 996.1
20260504194525 80 298 12.2 13.0 0.00 0.00 0.00 30 996.1
20260504194020 81 291 15.6 19.1 0.00 0.00 0.00 28 996.1
20260504193517 81 297 11.3 15.6 0.00 0.00 0.00 29 996.0
20260504193017 81 304 10.4 12.2 0.00 0.00 0.00 31 996.2
20260504192514 80 296 11.3 13.0 0.00 0.00 0.00 30 996.3
20260504192012 80 295 16.5 20.0 0.00 0.00 0.00 30 996.1
20260504191509 80 304 9.6 12.2 0.00 0.00 0.00 30 996.2
20260504191005 80 300 10.4 13.0 0.00 0.00 0.00 30 996.1
20260504190501 79 294 13.0 17.4 0.00 0.00 0.00 31 996.3
20260504185957 80 312 11.3 15.6 0.00 0.00 0.00 30 996.2
20260504185455 80 301 12.2 13.0 0.00 0.00 0.00 30 996.2
20260504184951 80 293 12.2 14.8 0.00 0.00 0.00 32 996.4
20260504184447 80 270 6.1 9.6 0.00 0.00 0.00 34 996.3
20260504183942 80 291 6.1 7.0 0.00 0.00 0.00 35 996.5
20260504183440 78 289 10.4 14.8 0.00 0.00 0.00 32 996.6
20260504182938 79 249 7.8 9.6 0.00 0.00 0.00 34 996.5
20260504182434 78 302 8.7 12.2 0.00 0.00 0.00 33 996.6
20260504181932 79 291 14.8 15.6 0.00 0.00 0.00 31 996.4
20260504181429 79 301 9.6 12.2 0.00 0.00 0.00 33 996.7
20260504180928 79 293 16.5 19.1 0.00 0.00 0.00 31 996.4
20260504180426 79 306 13.9 17.4 0.00 0.00 0.00 32 996.6
20260504175924 79 305 11.3 14.8 0.00 0.00 0.00 33 996.5
20260504175421 79 296 13.0 18.2 0.00 0.00 0.00 34 996.5
20260504174918 79 290 13.0 13.9 0.00 0.00 0.00 32 996.6
20260504174416 79 295 7.0 9.6 0.00 0.00 0.00 34 996.6
20260504173913 78 278 7.8 11.3 0.00 0.00 0.00 34 996.7
20260504173409 79 263 8.7 9.6 0.00 0.00 0.00 33 996.7
20260504172907 78 288 7.8 9.6 0.00 0.00 0.00 36 996.8
20260504172403 79 273 11.3 13.9 0.00 0.00 0.00 33 996.7
20260504171859 79 317 11.3 13.0 0.00 0.00 0.00 33 996.6
20260504171356 78 283 10.4 13.9 0.00 0.00 0.00 33 996.7
20260504170853 78 299 8.7 11.3 0.00 0.00 0.00 35 996.8
20260504170350 78 297 7.8 9.6 0.00 0.00 0.00 38 996.7
20260504160308 76 262 6.1 7.8 0.00 0.00 0.00 40 997.4
20260504150733 73 187 7.8 13.0 0.00 0.00 0.00 45 997.7
20260504150230 72 148 0.0 0.9 0.00 0.00 0.00 48 997.8
20260504141159 68 157 0.9 0.9 0.00 0.00 0.00 48 998.4
20260504140656 67 155 2.6 6.1 0.00 0.00 0.00 47 998.3
20260504140152 66 281 4.3 6.1 0.00 0.00 0.00 47 998.3
20260504130620 61 165 2.6 2.6 0.00 0.00 0.00 56 998.9
20260504130117 60 164 0.9 1.7 0.00 0.00 0.00 56 998.9
20260504110508 43 204 0.0 0.0 0.00 0.00 0.00 81 999.5
20260504100430 45 192 0.0 0.9 0.00 0.00 0.00 75 1000.3
20260504081823 44 180 1.7 1.7 0.00 0.00 0.00 80 1001.0
20260504081320 44 180 0.0 0.0 0.00 0.00 0.00 81 1001.2
20260504080816 45 175 0.0 0.0 0.00 0.00 0.00 79 1001.1
20260504080313 45 160 1.7 1.7 0.00 0.00 0.00 75 1001.1
20260504070240 39 265 0.0 0.0 0.00 0.00 0.00 91 1001.8